User: anonymous   Login
Location: Monteux
(44.0348°N, 4.9972°E)
Time: 20:17:12
(UTC+00:00)
Language:

Cosmos 2369 Rocket - Orbit

View from above orbital plane
View from above orbital plane
View from above satellite
View from above satellite

Ground track
Ground track

The orbit data is extracted from the following two-line orbital elements,

1 26070U 00006B   21060.26119761  .00000081  00000-0  65852-4 0  9992
2 26070  71.0054 353.5992 0014243  94.2115 266.0636 14.15472442 88971
Epoch (UTC): 01 March 2021 06:16:07
Eccentricity: 0.0014243
inclination: 71.0054°
perigee height: 830 km
apogee height: 851 km
right ascension of ascending node: 353.5992°
argument of perigee: 94.2115°
revolutions per day: 14.15472442
mean anomaly at epoch: 266.0636°
orbit number at epoch: 8897

The dashed part of the orbit path shows where the satellite is in the earth's shadow,  

DLR